[[{"header":{"parameterUnit":"m.s-1","parameterCategory":2,"la1":30.2991,"la2":30.254,"lo1":-89.0895,"lo2":-89.0444,"dy":0.0017,"dx":0.0017,"nx":28,"ny":28,"refTime":"2023-11-01T21:00:00:Z","depth":"0","parameterNumber":2,"parameterNumberName":"U-component_of_CURRENTS"},"data":[0,0,0,0,0,0,0,0,0,0,0,0,0,0,0,0,0,0,0,0,0,0,0,0,0,0,0,0,0,0,0,0,0,0,0,0,0,0,0,0,0,0,0,0,0,0,0,0,0,0,0,0,0,0,0,0,0,0,0.2436,0.2435,0,0.2405,0.2405,0.2405,0.238,0.2379,0.2378,0.2377,0.2387,0.2388,0.2389,0,0,0,0,0,0,0,0,0,0,0,0,0,0.2398,0.24,0.2436,0.2435,0.2434,0.2405,0.2405,0.2406,0.238,0.2379,0.2378,0.2377,0.2387,0.2388,0.2389,0,0,0,0,0,0,0,0,0,0,0,0,0,0.2402,0.2401,0.2436,0.2413,0.241,0.2405,0.2405,0.2406,0.238,0.2379,0.2378,0.2377,0.2386,0.2388,0.2389,0.2425,0,0,0.2394,0.2395,0,0,0,0,0,0,0,0,0.2402,0.2404,0.2418,0.2415,0.2411,0.239,0.2395,0.2412,0.2381,0.2398,0.2377,0.2376,0.2388,0.239,0.2395,0.2425,0.2426,0.2394,0.2395,0.2396,0.2396,0,0,0,0,0,0,0,0.2402,0.2405,0.243,0.2416,0.2413,0.2378,0.2379,0.2398,0.2407,0.2397,0.2393,0.238,0.2388,0.2394,0.2395,0.2426,0.2394,0.2396,0.2397,0.2397,0.2461,0.2462,0,0,0,0,0,0,0.2399,0.2406,0.2431,0.2429,0.2396,0.238,0.2381,0.2403,0.2405,0.2402,0.2381,0.2379,0.2392,0.2393,0.2396,0.2442,0.2396,0.2397,0.2398,0.246,0.2461,0.2462,0,0,0,0,0,0,0.2399,0.2403,0.2432,0.2409,0.2409,0.2382,0.2407,0.2403,0.2404,0.2392,0.2391,0.2384,0.2391,0.2393,0.2423,0.2442,0.2398,0.24,0.2459,0.2461,0.2462,0.2532,0,0,0,0,0,0,0.2399,0.2404,0.2417,0.241,0.241,0.2421,0.2407,0.2403,0.2395,0.2392,0.2395,0.2394,0.239,0.2421,0.2425,0.2443,0.2401,0.2458,0.246,0.2461,0.2528,0.2535,0.2541,0,0,0,0,0,0.2398,0.2409,0.242,0.2421,0.2432,0.2421,0.2419,0.2397,0.2396,0.2396,0.2412,0.2394,0.2431,0.2424,0.2428,0.2447,0.2458,0.246,0.2461,0.2526,0.2534,0.254,0,0,0,0,0,0,0.242,0.2407,0.2418,0.2434,0.2427,0.2414,0.2405,0.2403,0.2417,0.2416,0.2419,0.2421,0.2447,0.244,0.2432,0.2466,0.2436,0.2438,0.2483,0.2491,0.2497,0.2491,0.2402,0,0,0,0,0,0.2429,0.2428,0.2423,0.2441,0.2435,0.2429,0.2422,0.241,0.2416,0.2419,0.2425,0.2436,0.2459,0.2469,0.2476,0.2511,0.251,0.2518,0.2525,0.253,0.2527,0.2555,0.2564,0.2468,0.2468,0.2468,0,0,0.2427,0.2437,0.2427,0.2442,0.2439,0.245,0.2423,0.2411,0.2436,0.2421,0.2459,0.2457,0.2471,0.2503,0.2513,0.2501,0.256,0.2532,0.2537,0.2531,0.2558,0.2567,0.2576,0.2469,0.2469,0.2468,0,0,0.2437,0.2452,0.245,0.2455,0.245,0.2453,0.2452,0.2443,0.2451,0.2488,0.2483,0.2496,0.2531,0.254,0.2555,0.2601,0.2588,0.2595,0.2631,0.2659,0.2668,0.2675,0.2701,0.271,0.2603,0.2603,0.2603,0,0.2445,0.2467,0.2448,0.247,0.2476,0.2463,0.2479,0.2495,0.2501,0.2517,0.2504,0.255,0.2553,0.2605,0.2615,0.2616,0.2628,0.2607,0.2669,0.2676,0.2682,0.2707,0.2716,0.2606,0.2606,0.2606,0.2605,0,0.2457,0.2483,0.2486,0.2519,0.2525,0.2531,0.2546,0.2559,0.2572,0.2585,0.262,0.2625,0.2647,0.265,0.2654,0.2696,0.2689,0.2673,0.2654,0.2697,0.272,0.2728,0.2611,0.261,0.2609,0.2608,0,0,0.247,0.2485,0.2501,0.2518,0.255,0.2556,0.2605,0.2638,0.2674,0.268,0.2725,0.2751,0.273,0.2743,0.2734,0.2753,0.2811,0.2734,0.2734,0.2767,0.2879,0.2899,0.2909,0.2811,0.2813,0.2814,0.2883,0,0.2497,0.2541,0.2548,0.2597,0.2608,0.2624,0.2675,0.2704,0.2733,0.2772,0.2776,0.2811,0.2778,0.2785,0.2802,0.2806,0.2834,0.2794,0.2826,0.2827,0.2845,0.292,0.2916,0.298,0.2891,0.2893,0.2894,0,0.2515,0.2546,0.2588,0.2628,0.2638,0.2672,0.2737,0.2778,0.2832,0.2855,0.2879,0.2877,0.2907,0.2867,0.2907,0.2885,0.2887,0.2886,0.2889,0.2884,0.2862,0.2919,0.2998,0.2974,0.2906,0.2905,0.2904,0,0.2518,0.2576,0.2611,0.2628,0.2674,0.2703,0.2738,0.2798,0.2835,0.2903,0.2923,0.296,0.2974,0.2986,0.298,0.2952,0.3021,0.2984,0.3005,0.3006,0.2997,0.2995,0.306,0.3018,0.3017,0.3017,0.3017,0,0.2534,0.2561,0.2615,0.2631,0.2678,0.2714,0.2771,0.2814,0.2879,0.2922,0.2955,0.2994,0.3002,0.3033,0.3022,0.3054,0.3063,0.303,0.3035,0.3022,0.3022,0.2992,0.2949,0.302,0.3019,0.3019,0.3018,0,0.2504,0.2547,0.2576,0.2642,0.2667,0.2698,0.2769,0.2806,0.2879,0.2935,0.2955,0.303,0.3088,0.3097,0.3132,0.3114,0.3088,0.3142,0.3129,0.3131,0.3116,0.3075,0.301,0.2908,0.3181,0.3182,0.3183,0,0.2475,0.2493,0.257,0.2591,0.2615,0.2672,0.2705,0.2793,0.2831,0.2955,0.2972,0.3064,0.3119,0.3199,0.3221,0.3247,0.3131,0.323,0.317,0.3139,0.3098,0.2964,0.2871,0.3189,0.319,0.3191,0.3191,0,0.2415,0.2454,0.2485,0.2537,0.2577,0.2619,0.2674,0.2706,0.2811,0.2879,0.2978,0.3046,0.3169,0.3221,0.3276,0.3284,0.3139,0.3245,0.3219,0.3124,0.2975,0.2872,0.3114,0.3197,0.3197,0.3196,0.3196,0.3196,0.2364,0.2376,0.2432,0.2479,0.2513,0.2546,0.2563,0.263,0.2702,0.279,0.2922,0.3032,0.3194,0.3296,0.3275,0.33,0.3184,0.3248,0.3208,0.308,0.2961,0.3221,0.3302,0.3302,0.3302,0.3302,0.3302,0,0.2307,0.234,0.237,0.2415,0.2422,0.2475,0.2524,0.2534,0.2589,0.2718,0.2817,0.3043,0.3164,0.326,0.3336,0.3263,0.3125,0.3222,0.3044,0.2952,0.3225,0.3208,0.3265,0.3265,0.3265,0.3265,0.3265,0.3265,0.228,0.2296,0.2327,0.2328,0.2349,0.2339,0.2359,0.2384,0.2458,0.2568,0.2697,0.2835,0.3071,0.3334,0.3334,0.3278,0.3013,0.3,0.2882,0.3128,0.3127,0.3126,0.3103,0.3136,0.3135,0.2547,0.2543,0.254]},{"header":{"parameterUnit":"m.s-1","parameterCategory":2,"la1":30.2991,"la2":30.254,"lo1":-89.0895,"lo2":-89.0444,"dy":0.0017,"dx":0.0017,"nx":28,"ny":28,"refTime":"2023-11-01T21:00:00:Z","depth":"0","parameterNumber":3,"parameterNumberName":"V-component_of_CURRENTS"},"data":[0,0,0,0,0,0,0,0,0,0,0,0,0,0,0,0,0,0,0,0,0,0,0,0,0,0,0,0,0,0,0,0,0,0,0,0,0,0,0,0,0,0,0,0,0,0,0,0,0,0,0,0,0,0,0,0,0,0,-0.0407,-0.0406,0,-0.0432,-0.0433,-0.0435,-0.0484,-0.0484,-0.0483,-0.0483,-0.0669,-0.0674,-0.0679,0,0,0,0,0,0,0,0,0,0,0,0,0,-0.0359,-0.0361,-0.0407,-0.0406,-0.0406,-0.0432,-0.0433,-0.0435,-0.0484,-0.0484,-0.0483,-0.0483,-0.0667,-0.0674,-0.068,0,0,0,0,0,0,0,0,0,0,0,0,0,-0.0393,-0.0362,-0.0407,-0.0424,-0.0425,-0.0431,-0.0433,-0.0435,-0.0484,-0.0484,-0.0483,-0.0483,-0.0665,-0.0673,-0.0681,-0.0734,0,0,-0.0704,-0.0707,0,0,0,0,0,0,0,0,-0.0392,-0.0397,-0.0422,-0.0423,-0.0423,-0.0443,-0.0483,-0.0539,-0.0484,-0.0475,-0.0483,-0.0483,-0.0601,-0.0614,-0.0635,-0.0742,-0.075,-0.0705,-0.0709,-0.0713,-0.0715,0,0,0,0,0,0,0,-0.0389,-0.0396,-0.043,-0.0421,-0.0422,-0.0414,-0.0421,-0.0494,-0.0552,-0.0475,-0.0476,-0.0459,-0.0604,-0.0627,-0.064,-0.0753,-0.0704,-0.0711,-0.0716,-0.0719,-0.0864,-0.0863,0,0,0,0,0,0,-0.0364,-0.0394,-0.0429,-0.0429,-0.0392,-0.0414,-0.0422,-0.0448,-0.0547,-0.0557,-0.0459,-0.0461,-0.0614,-0.063,-0.0646,-0.0694,-0.0713,-0.072,-0.0724,-0.0864,-0.0863,-0.0863,0,0,0,0,0,0,-0.0364,-0.0369,-0.0428,-0.0399,-0.0404,-0.0414,-0.0443,-0.0448,-0.0457,-0.053,-0.0546,-0.0459,-0.0614,-0.0636,-0.0725,-0.0702,-0.0723,-0.073,-0.0865,-0.0864,-0.0863,-0.0803,0,0,0,0,0,0,-0.0363,-0.037,-0.0379,-0.0399,-0.0405,-0.0417,-0.0442,-0.0448,-0.0441,-0.0444,-0.0536,-0.0554,-0.0616,-0.0713,-0.0733,-0.0713,-0.0736,-0.0866,-0.0865,-0.0863,-0.0806,-0.08,-0.0795,0,0,0,0,0,-0.0362,-0.0373,-0.038,-0.0383,-0.0419,-0.0415,-0.0419,-0.0432,-0.044,-0.0442,-0.0524,-0.055,-0.0715,-0.0721,-0.0744,-0.0725,-0.0867,-0.0865,-0.0863,-0.0808,-0.0801,-0.0795,0,0,0,0,0,0,-0.0389,-0.0378,-0.0387,-0.0406,-0.0399,-0.0418,-0.042,-0.042,-0.0483,-0.0498,-0.0576,-0.0601,-0.0662,-0.0703,-0.0707,-0.0757,-0.0781,-0.0784,-0.0731,-0.0725,-0.0719,-0.068,-0.0743,0,0,0,0,0,-0.0389,-0.0375,-0.038,-0.039,-0.0393,-0.0405,-0.0403,-0.0406,-0.0452,-0.0476,-0.0537,-0.0605,-0.0673,-0.0708,-0.0774,-0.0823,-0.0836,-0.0812,-0.0806,-0.0801,-0.0782,-0.0792,-0.0785,-0.0857,-0.0857,-0.0857,0,0,-0.0371,-0.0388,-0.0363,-0.0388,-0.0399,-0.0397,-0.0408,-0.0401,-0.0401,-0.0492,-0.0538,-0.06,-0.0684,-0.0738,-0.0763,-0.0771,-0.0788,-0.0799,-0.0795,-0.0777,-0.0789,-0.0782,-0.0776,-0.0856,-0.0856,-0.0856,0,0,-0.0351,-0.0383,-0.0361,-0.0365,-0.0366,-0.038,-0.0368,-0.0383,-0.0399,-0.0446,-0.0505,-0.0553,-0.0656,-0.0699,-0.074,-0.074,-0.0764,-0.0744,-0.0686,-0.0697,-0.0691,-0.0685,-0.0693,-0.0689,-0.0734,-0.0734,-0.0734,0,-0.0345,-0.0343,-0.0351,-0.0359,-0.0353,-0.0368,-0.0354,-0.0378,-0.0413,-0.0422,-0.0452,-0.0561,-0.0633,-0.0682,-0.0681,-0.0725,-0.0734,-0.0711,-0.0688,-0.0684,-0.0679,-0.0689,-0.0685,-0.0731,-0.0731,-0.0732,-0.0732,0,-0.0311,-0.0312,-0.0313,-0.0323,-0.0322,-0.0314,-0.0334,-0.0341,-0.0364,-0.0376,-0.0418,-0.0511,-0.0563,-0.0583,-0.0648,-0.064,-0.0657,-0.0687,-0.0704,-0.0668,-0.0681,-0.0678,-0.0727,-0.0728,-0.0729,-0.0729,0,0,-0.0308,-0.0281,-0.0291,-0.0274,-0.0302,-0.0294,-0.0308,-0.0311,-0.0298,-0.0344,-0.0335,-0.0439,-0.0455,-0.0499,-0.0556,-0.0564,-0.0556,-0.0604,-0.0606,-0.0607,-0.0572,-0.0604,-0.0605,-0.0582,-0.0581,-0.0581,-0.0593,0,-0.0288,-0.0265,-0.0268,-0.0241,-0.0225,-0.0246,-0.0249,-0.0253,-0.0273,-0.0274,-0.0336,-0.0367,-0.0434,-0.0451,-0.047,-0.0539,-0.0545,-0.0549,-0.0609,-0.061,-0.064,-0.0602,-0.0631,-0.0645,-0.059,-0.059,-0.059,0,-0.0267,-0.0256,-0.0212,-0.0179,-0.0178,-0.0165,-0.0158,-0.0158,-0.0172,-0.0184,-0.0208,-0.0259,-0.0296,-0.0351,-0.0423,-0.0422,-0.0483,-0.053,-0.0533,-0.0577,-0.0637,-0.0672,-0.0643,-0.0847,-0.0586,-0.0586,-0.0586,0,-0.0241,-0.0222,-0.0178,-0.0172,-0.0143,-0.0127,-0.0121,-0.0122,-0.0104,-0.0116,-0.0102,-0.016,-0.0182,-0.0259,-0.0373,-0.0394,-0.044,-0.0488,-0.0569,-0.0573,-0.0614,-0.0623,-0.0784,-0.0519,-0.0519,-0.0519,-0.0519,0,-0.0218,-0.0187,-0.0155,-0.0128,-0.0077,-0.0081,-0.0027,-0.0027,-0.0011,0.0032,-0.0046,-0.0026,-0.0156,-0.0213,-0.0323,-0.0431,-0.0406,-0.0541,-0.0571,-0.0595,-0.0602,-0.0796,-0.091,-0.0519,-0.0519,-0.0519,-0.0519,0,-0.0172,-0.0157,-0.0096,-0.006,-0.0046,-0.0007,0.0044,0.0085,0.0084,0.0139,0.0137,0.0087,0.0011,-0.0125,-0.0245,-0.0362,-0.0587,-0.0516,-0.0535,-0.0567,-0.0843,-0.0951,-0.1084,-0.1198,-0.0603,-0.0603,-0.0604,0,-0.0135,-0.0095,-0.0035,-0.0,0.0025,0.0077,0.012,0.0137,0.0183,0.0214,0.0247,0.019,0.0161,-0.0036,-0.0246,-0.0434,-0.0614,-0.0593,-0.0643,-0.0848,-0.0991,-0.104,-0.1131,-0.0677,-0.0678,-0.0679,-0.068,0,-0.0062,-0.0038,0.001,0.0078,0.0132,0.0192,0.0251,0.0302,0.033,0.037,0.0409,0.039,0.0202,0.0002,-0.0266,-0.0419,-0.076,-0.0619,-0.0828,-0.1052,-0.1117,-0.1245,-0.0683,-0.0689,-0.0688,-0.0687,-0.0687,-0.0686,-0.0008,0.0035,0.0088,0.0146,0.0212,0.028,0.0327,0.0395,0.0468,0.0516,0.052,0.0497,0.0211,-0.0161,-0.0389,-0.0853,-0.0834,-0.1003,-0.1111,-0.1135,-0.1269,-0.0722,-0.0769,-0.0769,-0.0768,-0.0768,-0.0768,0,0.0039,0.0073,0.0141,0.0204,0.0266,0.029,0.0387,0.0427,0.0504,0.0571,0.0593,0.0425,0.0056,-0.0336,-0.0904,-0.1262,-0.1399,-0.1483,-0.1583,-0.1651,-0.1162,-0.1194,-0.1339,-0.1339,-0.1339,-0.1339,-0.1338,-0.1338,0.0057,0.012,0.0137,0.0214,0.0259,0.0337,0.0384,0.0456,0.0511,0.0537,0.051,0.0467,0.0079,-0.0797,-0.1534,-0.172,-0.2038,-0.2074,-0.2222,-0.1928,-0.1892,-0.1858,-0.1915,-0.221,-0.2211,-0.2666,-0.2671,-0.2675]}],[{"header":{"parameterUnit":"m.s-1","parameterCategory":2,"la1":30.2991,"la2":30.254,"lo1":-89.0895,"lo2":-89.0444,"dy":0.0017,"dx":0.0017,"nx":28,"ny":28,"refTime":"2023-11-01T21:00:00:Z","depth":"2","parameterNumber":2,"parameterNumberName":"U-component_of_CURRENTS"},"data":[0,0,0,0,0,0,0,0,0,0,0,0,0,0,0,0,0,0,0,0,0,0,0,0,0,0,0,0,0,0,0,0,0,0,0,0,0,0,0,0,0,0,0,0,0,0,0,0,0,0,0,0,0,0,0,0,0,0,0.2416,0.2416,0,0.2405,0.2405,0.2405,0.2382,0.2381,0.238,0.238,0.239,0.2391,0.2392,0,0,0,0,0,0,0,0,0,0,0,0,0,0.2378,0.2379,0.2416,0.2415,0.2415,0.2405,0.2405,0.2405,0.2382,0.2381,0.238,0.2379,0.239,0.2391,0.2392,0,0,0,0,0,0,0,0,0,0,0,0,0,0.2387,0.238,0.2416,0.2399,0.2397,0.2405,0.2405,0.2405,0.2383,0.2381,0.238,0.2379,0.2389,0.2391,0.2392,0.2428,0,0,0.2397,0.2398,0,0,0,0,0,0,0,0,0.2387,0.2389,0.2402,0.24,0.2398,0.239,0.2395,0.2413,0.2383,0.2393,0.238,0.2378,0.239,0.2392,0.2398,0.2428,0.2429,0.2397,0.2398,0.2399,0.2399,0,0,0,0,0,0,0,0.2386,0.2389,0.2416,0.2402,0.2399,0.2378,0.2379,0.2398,0.2402,0.2392,0.2389,0.2381,0.239,0.2397,0.2398,0.2429,0.2397,0.2399,0.24,0.24,0.2465,0.2465,0,0,0,0,0,0,0.2383,0.2389,0.2416,0.2415,0.2385,0.238,0.2381,0.2397,0.2402,0.24,0.2382,0.238,0.2394,0.2396,0.2398,0.2445,0.2399,0.2401,0.2401,0.2464,0.2465,0.2466,0,0,0,0,0,0,0.2383,0.2387,0.2416,0.2397,0.2399,0.2382,0.24,0.2398,0.24,0.2394,0.2393,0.2386,0.2394,0.2396,0.2426,0.2445,0.2401,0.2403,0.2463,0.2464,0.2465,0.2535,0,0,0,0,0,0,0.2383,0.2388,0.2397,0.2398,0.2399,0.2413,0.2401,0.2398,0.2396,0.2393,0.2397,0.2397,0.2393,0.2424,0.2428,0.2446,0.2404,0.2462,0.2464,0.2465,0.2532,0.2539,0.2544,0,0,0,0,0,0.2382,0.2389,0.2399,0.2401,0.2415,0.2413,0.2413,0.2398,0.2397,0.2397,0.2415,0.2396,0.2434,0.2427,0.2431,0.245,0.2461,0.2463,0.2465,0.2529,0.2537,0.2544,0,0,0,0,0,0,0.24,0.2387,0.2398,0.241,0.2411,0.2407,0.2403,0.2404,0.2419,0.2417,0.2421,0.2423,0.245,0.2443,0.2435,0.2469,0.2439,0.2442,0.2487,0.2494,0.25,0.2495,0.2405,0,0,0,0,0,0.2406,0.2403,0.2402,0.242,0.2414,0.2416,0.2414,0.2407,0.2417,0.2421,0.2427,0.2438,0.2462,0.2473,0.2479,0.2514,0.2513,0.2522,0.2528,0.2534,0.253,0.2557,0.2566,0.2471,0.2471,0.2471,0,0,0.2407,0.2416,0.2407,0.2421,0.2423,0.2436,0.2413,0.2408,0.2436,0.2422,0.2461,0.2459,0.2474,0.2507,0.2517,0.2505,0.2563,0.2536,0.2541,0.2534,0.256,0.257,0.2578,0.2472,0.2472,0.2472,0,0,0.2424,0.2431,0.2429,0.2436,0.2437,0.2441,0.2442,0.2439,0.2448,0.2488,0.2484,0.2497,0.2533,0.2543,0.2559,0.2605,0.2592,0.2599,0.2635,0.2662,0.267,0.2677,0.2703,0.2712,0.2606,0.2606,0.2607,0,0.2434,0.2451,0.243,0.2451,0.246,0.2451,0.2467,0.2487,0.2499,0.2517,0.2504,0.2551,0.2554,0.2608,0.2618,0.262,0.2631,0.2611,0.2672,0.2679,0.2685,0.2709,0.2718,0.261,0.261,0.2609,0.2609,0,0.245,0.2472,0.2476,0.2504,0.2511,0.252,0.2537,0.2552,0.2565,0.2583,0.2619,0.2625,0.2649,0.2652,0.2657,0.2699,0.2692,0.2676,0.2657,0.2699,0.2721,0.2729,0.2615,0.2614,0.2613,0.2612,0,0,0.2466,0.2477,0.2493,0.2508,0.2537,0.2545,0.2594,0.2628,0.2667,0.2676,0.2722,0.275,0.2731,0.2744,0.2737,0.2755,0.2813,0.2737,0.2736,0.2768,0.2879,0.2897,0.2907,0.2813,0.2814,0.2815,0.2883,0,0.2495,0.2537,0.2541,0.2589,0.2597,0.2612,0.2663,0.2696,0.2726,0.2767,0.2773,0.281,0.2778,0.2787,0.2803,0.2807,0.2834,0.2796,0.2826,0.2827,0.2843,0.2917,0.2578,0.2612,0.289,0.2891,0.2892,0,0.2513,0.2542,0.2582,0.262,0.2628,0.2663,0.2725,0.2769,0.2826,0.285,0.2876,0.2876,0.2907,0.2868,0.2907,0.2886,0.2887,0.2885,0.2888,0.2882,0.286,0.261,0.2615,0.2905,0.2904,0.2903,0.2903,0,0.2517,0.2572,0.2605,0.2621,0.2665,0.2693,0.2728,0.2789,0.2828,0.2898,0.292,0.2959,0.2973,0.2984,0.2978,0.295,0.3018,0.2981,0.3001,0.3002,0.2706,0.268,0.3013,0.3013,0.3013,0.3013,0.3013,0,0.2533,0.2558,0.261,0.2625,0.2672,0.2706,0.2763,0.2807,0.2873,0.2918,0.2952,0.2991,0.3,0.303,0.302,0.305,0.3059,0.3025,0.3029,0.2724,0.27,0.2937,0.2927,0.3015,0.3015,0.3014,0.3014,0,0.2502,0.2544,0.2572,0.2637,0.266,0.2692,0.2762,0.28,0.2874,0.2931,0.2951,0.3027,0.3084,0.3093,0.3127,0.3108,0.313,0.3134,0.2786,0.2751,0.3082,0.3075,0.3168,0.3169,0.3171,0.3172,0.3172,0,0.2473,0.2491,0.2566,0.2587,0.2611,0.2667,0.27,0.2788,0.2826,0.2951,0.2968,0.3059,0.3094,0.3172,0.3102,0.3099,0.3189,0.2869,0.2765,0.3107,0.3102,0.3093,0.3085,0.2388,0.2382,0.2378,0.2374,0,0.2413,0.2453,0.2483,0.2534,0.2574,0.2615,0.267,0.2702,0.2807,0.2851,0.2948,0.2998,0.3039,0.2887,0.2904,0.2868,0.2844,0.2785,0.3207,0.2438,0.2388,0.2378,0.2392,0.2333,0.2337,0.234,0.2342,0.2344,0.2363,0.2376,0.2431,0.2477,0.2511,0.2543,0.2561,0.253,0.2566,0.252,0.2753,0.2668,0.2701,0.2521,0.2484,0.2449,0.2655,0.2544,0.2549,0.2562,0.2497,0.2455,0.24,0.2404,0.2408,0.2411,0.2414,0,0.2274,0.234,0.2369,0.2414,0.2367,0.2473,0.2522,0.2407,0.2307,0.2269,0.2246,0.2069,0.1961,0.2038,0.1877,0.1949,0.1838,0.1936,0.1723,0.1766,0.1804,0.1692,0.1385,0.1382,0.138,0.1378,0,0,0.2239,0.2234,0.2265,0.2227,0.2282,0.219,0.2208,0.2031,0.192,0.1698,0.1608,0.1653,0.1874,0.1518,0.1538,0.1435,0.1578,0.1383,0.2195,0.1977,0.201,0.2139,0.2017,0,0,0,0,0]},{"header":{"parameterUnit":"m.s-1","parameterCategory":2,"la1":30.2991,"la2":30.254,"lo1":-89.0895,"lo2":-89.0444,"dy":0.0017,"dx":0.0017,"nx":28,"ny":28,"refTime":"2023-11-01T21:00:00:Z","depth":"2","parameterNumber":3,"parameterNumberName":"V-component_of_CURRENTS"},"data":[0,0,0,0,0,0,0,0,0,0,0,0,0,0,0,0,0,0,0,0,0,0,0,0,0,0,0,0,0,0,0,0,0,0,0,0,0,0,0,0,0,0,0,0,0,0,0,0,0,0,0,0,0,0,0,0,0,0,-0.0335,-0.0334,0,-0.0387,-0.0388,-0.039,-0.0442,-0.0441,-0.0441,-0.0441,-0.0627,-0.0632,-0.0637,0,0,0,0,0,0,0,0,0,0,0,0,0,-0.0285,-0.0286,-0.0335,-0.0334,-0.0334,-0.0387,-0.0388,-0.039,-0.0442,-0.0441,-0.0441,-0.0441,-0.0625,-0.0631,-0.0637,0,0,0,0,0,0,0,0,0,0,0,0,0,-0.0328,-0.0287,-0.0335,-0.0359,-0.0361,-0.0387,-0.0389,-0.0391,-0.0442,-0.0441,-0.0441,-0.0441,-0.0623,-0.063,-0.0638,-0.069,0,0,-0.0661,-0.0665,0,0,0,0,0,0,0,0,-0.0325,-0.0331,-0.0356,-0.0358,-0.036,-0.0399,-0.0438,-0.0494,-0.0442,-0.0421,-0.0441,-0.0441,-0.0557,-0.057,-0.0592,-0.0699,-0.0707,-0.0662,-0.0667,-0.067,-0.0672,0,0,0,0,0,0,0,-0.0322,-0.0328,-0.0365,-0.0356,-0.0358,-0.0369,-0.0376,-0.0449,-0.05,-0.0423,-0.0424,-0.0415,-0.056,-0.0584,-0.0597,-0.071,-0.0662,-0.0669,-0.0673,-0.0676,-0.0819,-0.0819,0,0,0,0,0,0,-0.0297,-0.0326,-0.0363,-0.0365,-0.0331,-0.0369,-0.0378,-0.0395,-0.0496,-0.0507,-0.0416,-0.0417,-0.0571,-0.0588,-0.0604,-0.0651,-0.067,-0.0677,-0.0681,-0.082,-0.0819,-0.0818,0,0,0,0,0,0,-0.0296,-0.0301,-0.0361,-0.0338,-0.0345,-0.037,-0.0389,-0.0395,-0.0407,-0.0487,-0.0503,-0.0416,-0.0572,-0.0593,-0.0682,-0.0659,-0.068,-0.0687,-0.0821,-0.082,-0.0819,-0.0759,0,0,0,0,0,0,-0.0295,-0.0301,-0.0305,-0.0337,-0.0345,-0.0361,-0.0388,-0.0396,-0.0397,-0.0401,-0.0494,-0.0511,-0.0573,-0.0671,-0.069,-0.067,-0.0693,-0.0822,-0.082,-0.0819,-0.0762,-0.0756,-0.0751,0,0,0,0,0,-0.0294,-0.0298,-0.0306,-0.0309,-0.035,-0.0359,-0.0366,-0.0388,-0.0397,-0.0399,-0.0482,-0.0508,-0.0672,-0.0678,-0.0701,-0.0682,-0.0823,-0.0821,-0.0819,-0.0765,-0.0758,-0.0751,0,0,0,0,0,0,-0.0315,-0.0304,-0.0313,-0.0326,-0.0331,-0.0364,-0.037,-0.0377,-0.044,-0.0455,-0.0534,-0.0558,-0.0619,-0.066,-0.0664,-0.0713,-0.0737,-0.074,-0.0688,-0.0682,-0.0676,-0.0637,-0.07,0,0,0,0,0,-0.031,-0.0292,-0.0303,-0.0314,-0.0318,-0.0341,-0.0346,-0.0356,-0.0408,-0.0433,-0.0493,-0.0561,-0.063,-0.0665,-0.0731,-0.0779,-0.0791,-0.0768,-0.0762,-0.0757,-0.0737,-0.0747,-0.074,-0.0812,-0.0812,-0.0812,0,0,-0.0297,-0.0312,-0.0288,-0.0311,-0.033,-0.0329,-0.0347,-0.0352,-0.0357,-0.0448,-0.0494,-0.0557,-0.064,-0.0694,-0.072,-0.0727,-0.0744,-0.0755,-0.0751,-0.0733,-0.0744,-0.0737,-0.0731,-0.0811,-0.0811,-0.0812,0,0,-0.0286,-0.0307,-0.0282,-0.029,-0.0301,-0.0317,-0.0308,-0.0331,-0.035,-0.0401,-0.0461,-0.0509,-0.0611,-0.0655,-0.0696,-0.0696,-0.072,-0.07,-0.0642,-0.0652,-0.0646,-0.0641,-0.0649,-0.0645,-0.069,-0.069,-0.069,0,-0.0285,-0.0275,-0.0279,-0.0285,-0.0282,-0.0305,-0.0292,-0.032,-0.0365,-0.0376,-0.0405,-0.0516,-0.0588,-0.0638,-0.0638,-0.0681,-0.069,-0.0667,-0.0644,-0.0639,-0.0635,-0.0644,-0.0641,-0.0687,-0.0687,-0.0688,-0.0688,0,-0.0256,-0.0251,-0.0253,-0.0256,-0.0256,-0.0253,-0.0275,-0.0284,-0.0308,-0.0326,-0.037,-0.0465,-0.0517,-0.0538,-0.0603,-0.0595,-0.0613,-0.0643,-0.0659,-0.0624,-0.0636,-0.0634,-0.0683,-0.0684,-0.0685,-0.0685,0,0,-0.0258,-0.0225,-0.0234,-0.0215,-0.0238,-0.0234,-0.0246,-0.0251,-0.0242,-0.0292,-0.0285,-0.0391,-0.0409,-0.0453,-0.0512,-0.0519,-0.0512,-0.0559,-0.0561,-0.0563,-0.0527,-0.056,-0.0561,-0.0537,-0.0537,-0.0536,-0.0549,0,-0.0242,-0.0217,-0.0213,-0.0186,-0.0165,-0.0184,-0.0187,-0.0196,-0.0217,-0.0221,-0.0287,-0.032,-0.0387,-0.0406,-0.0425,-0.0495,-0.0501,-0.0505,-0.0563,-0.0565,-0.0596,-0.0557,-0.047,-0.0475,-0.0546,-0.0546,-0.0545,0,-0.0222,-0.0208,-0.0161,-0.0124,-0.0121,-0.0109,-0.0097,-0.01,-0.0118,-0.0133,-0.0159,-0.0213,-0.0251,-0.0306,-0.0378,-0.0377,-0.0439,-0.0485,-0.0488,-0.0533,-0.0592,-0.0522,-0.0468,-0.0541,-0.0542,-0.0542,-0.0542,0,-0.0197,-0.0174,-0.0128,-0.012,-0.0088,-0.0071,-0.0063,-0.0066,-0.0051,-0.0067,-0.0053,-0.0115,-0.0137,-0.0214,-0.0328,-0.0349,-0.0395,-0.0442,-0.0524,-0.0528,-0.047,-0.047,-0.0472,-0.0472,-0.0472,-0.0472,-0.0472,0,-0.0174,-0.0141,-0.0107,-0.0078,-0.0026,-0.0028,0.0025,0.0025,0.004,0.0079,0.0,0.0019,-0.0111,-0.0168,-0.0279,-0.0387,-0.0361,-0.0496,-0.0526,-0.0449,-0.0447,-0.052,-0.0526,-0.0473,-0.0473,-0.0473,-0.0473,0,-0.0129,-0.0112,-0.0049,-0.001,0.0003,0.0042,0.0094,0.0133,0.0132,0.0184,0.0182,0.0131,0.0055,-0.0082,-0.0201,-0.0317,-0.0425,-0.0472,-0.0375,-0.0394,-0.0564,-0.0566,-0.0557,-0.0558,-0.0559,-0.056,-0.0561,0,-0.0092,-0.0052,0.001,0.0045,0.0071,0.0123,0.0167,0.0184,0.0229,0.0259,0.0291,0.0233,0.021,0.0014,-0.0161,-0.0339,-0.0417,-0.0429,-0.0463,-0.0538,-0.0569,-0.057,-0.057,-0.0359,-0.0358,-0.0358,-0.0357,0,-0.0019,0.0004,0.0053,0.0121,0.0175,0.0236,0.0295,0.0346,0.0374,0.0429,0.0467,0.0454,0.029,0.015,-0.0106,-0.0232,-0.0398,-0.0422,-0.0496,-0.0368,-0.0357,-0.0386,-0.0392,-0.0349,-0.035,-0.0351,-0.0351,-0.0351,0.0033,0.0076,0.013,0.0188,0.0254,0.0322,0.0369,0.0526,0.0625,0.0757,0.0649,0.0685,0.0464,0.0205,-0.0044,-0.031,-0.0327,-0.0435,-0.0434,-0.0435,-0.0426,-0.042,-0.0421,-0.0422,-0.0423,-0.0424,-0.0424,0,0.0131,0.0114,0.0182,0.0245,0.0375,0.0331,0.0428,0.0599,0.0813,0.0913,0.099,0.0801,0.0616,0.0326,-0.0027,-0.0282,-0.0278,-0.0392,-0.0323,-0.0327,-0.0332,-0.0317,-0.0284,-0.0284,-0.0285,-0.0286,0,0,0.0162,0.0251,0.0268,0.0385,0.0382,0.0579,0.0628,0.0877,0.1042,0.1222,0.121,0.116,0.0742,0.0509,0.0174,-0.0059,-0.0141,-0.0103,-0.018,-0.0062,-0.0064,-0.0314,-0.0291,0,0,0,0,0]}],[{"header":{"parameterUnit":"m.s-1","parameterCategory":2,"la1":30.2991,"la2":30.254,"lo1":-89.0895,"lo2":-89.0444,"dy":0.0017,"dx":0.0017,"nx":28,"ny":28,"refTime":"2023-11-01T21:00:00:Z","depth":"4","parameterNumber":2,"parameterNumberName":"U-component_of_CURRENTS"},"data":[0,0,0,0,0,0,0,0,0,0,0,0,0,0,0,0,0,0,0,0,0,0,0,0,0,0,0,0,0,0,0,0,0,0,0,0,0,0,0,0,0,0,0,0,0,0,0,0,0,0,0,0,0,0,0,0,0,0,0.1248,0.125,0,0.133,0.1329,0.1329,0.1357,0.1358,0.1359,0.136,0.1375,0.1375,0.1374,0,0,0,0,0,0,0,0,0,0,0,0,0,0.1199,0.1198,0.1248,0.125,0.1252,0.133,0.1329,0.1329,0.1357,0.1358,0.1359,0.1361,0.1376,0.1375,0.1374,0,0,0,0,0,0,0,0,0,0,0,0,0,0.123,0.1198,0.1247,0.1286,0.1292,0.133,0.1329,0.1329,0.1357,0.1358,0.136,0.1361,0.1376,0.1375,0.1374,0.1339,0,0,0.1372,0.1371,0,0,0,0,0,0,0,0,0.1228,0.123,0.1278,0.1284,0.129,0.1348,0.1319,0.1334,0.1356,0.1316,0.136,0.1362,0.1369,0.1368,0.136,0.1339,0.134,0.1372,0.1371,0.1371,0.1371,0,0,0,0,0,0,0,0.1226,0.1227,0.1265,0.1281,0.1289,0.133,0.1333,0.1321,0.132,0.132,0.1326,0.1358,0.1369,0.1361,0.1361,0.134,0.1372,0.1371,0.137,0.137,0.1416,0.1417,0,0,0,0,0,0,0.1239,0.1224,0.1263,0.1269,0.1279,0.133,0.1334,0.1316,0.1322,0.1329,0.1357,0.1359,0.1362,0.1362,0.1362,0.1415,0.1371,0.137,0.137,0.1414,0.1416,0.1418,0,0,0,0,0,0,0.1236,0.1239,0.126,0.1264,0.1271,0.133,0.131,0.1317,0.135,0.1353,0.1357,0.1389,0.1363,0.1363,0.1373,0.1413,0.137,0.1369,0.1412,0.1415,0.1417,0.1462,0,0,0,0,0,0,0.1233,0.1236,0.1242,0.1263,0.1272,0.1304,0.131,0.1318,0.1372,0.1377,0.1381,0.1382,0.1364,0.1375,0.1373,0.1411,0.1368,0.141,0.1413,0.1416,0.1458,0.1465,0.1472,0,0,0,0,0,0.123,0.1229,0.124,0.1248,0.127,0.1307,0.1313,0.1352,0.1373,0.1386,0.1387,0.1384,0.1395,0.1374,0.1372,0.1411,0.1408,0.1412,0.1416,0.1455,0.1464,0.1472,0,0,0,0,0,0,0.1204,0.1234,0.1246,0.1251,0.1291,0.1318,0.1345,0.1373,0.1383,0.1399,0.1385,0.1385,0.1414,0.1406,0.1384,0.1437,0.141,0.1413,0.1441,0.1449,0.1455,0.1469,0.1368,0,0,0,0,0,0.1203,0.1217,0.1248,0.1263,0.1276,0.1315,0.1344,0.1377,0.1394,0.1403,0.1409,0.1418,0.142,0.143,0.1428,0.1444,0.1454,0.1476,0.1483,0.1489,0.1501,0.1549,0.1561,0.1431,0.1431,0.1431,0,0,0.1223,0.1226,0.125,0.1263,0.1287,0.1312,0.1332,0.1388,0.1416,0.14,0.1431,0.1439,0.143,0.145,0.1465,0.1452,0.1531,0.1494,0.1498,0.1507,0.1554,0.1567,0.1578,0.1433,0.1433,0.1432,0,0,0.1244,0.124,0.1259,0.1282,0.1335,0.1347,0.1373,0.1417,0.1439,0.1467,0.1472,0.1506,0.1501,0.1513,0.1512,0.1558,0.1563,0.1572,0.1618,0.1664,0.1675,0.1685,0.1707,0.1718,0.1579,0.1579,0.1579,0,0.1262,0.1265,0.1279,0.129,0.1321,0.1362,0.1393,0.1411,0.1464,0.1488,0.1487,0.1532,0.153,0.1565,0.1584,0.1575,0.1595,0.1581,0.1673,0.1683,0.1692,0.1712,0.1724,0.1581,0.1581,0.1581,0.158,0,0.129,0.1304,0.1313,0.1328,0.1358,0.1396,0.1428,0.1467,0.15,0.1528,0.1586,0.1588,0.1625,0.1634,0.1615,0.1693,0.1683,0.1672,0.1649,0.1708,0.1725,0.1737,0.1585,0.1584,0.1583,0.1583,0,0,0.1284,0.1328,0.133,0.1351,0.1385,0.141,0.1451,0.1497,0.1546,0.1589,0.1645,0.1666,0.1705,0.1709,0.1719,0.1758,0.1834,0.1751,0.1752,0.1767,0.1931,0.1797,0.1797,0.1844,0.1847,0.1849,0.1913,0,0.1298,0.1327,0.1347,0.1393,0.141,0.1453,0.1486,0.1544,0.1584,0.1644,0.1679,0.173,0.172,0.1761,0.1801,0.1829,0.187,0.1817,0.1877,0.1878,0.1748,0.1807,0.1857,0.1922,0.1924,0.1926,0.1928,0,0.1299,0.1317,0.1366,0.1422,0.1434,0.1477,0.1549,0.1593,0.1673,0.1711,0.178,0.1808,0.1881,0.1861,0.1948,0.192,0.1938,0.1949,0.1952,0.1821,0.1766,0.1854,0.1949,0.1947,0.1945,0.1944,0.1943,0,0.1268,0.1321,0.1361,0.1381,0.1452,0.15,0.1548,0.1629,0.1673,0.1777,0.1827,0.1902,0.196,0.2001,0.2025,0.2005,0.2103,0.2074,0.1969,0.1959,0.2039,0.2027,0.2142,0.2142,0.2142,0.2142,0.2142,0,0.124,0.1274,0.1363,0.1385,0.1448,0.1509,0.159,0.1651,0.1745,0.1798,0.1878,0.1925,0.2004,0.2056,0.2063,0.2048,0.214,0.1988,0.1974,0.2054,0.2044,0.2046,0.2034,0.2144,0.2144,0.2143,0.2143,0,0.1193,0.125,0.1303,0.1401,0.1437,0.149,0.1602,0.1648,0.1761,0.1837,0.1875,0.1973,0.2035,0.2085,0.2151,0.2087,0.209,0.2063,0.2147,0.2134,0.1903,0.1893,0.1948,0.1944,0.1941,0.1938,0.1936,0,0.1166,0.1194,0.1307,0.134,0.1391,0.1479,0.1526,0.1643,0.1686,0.1838,0.1854,0.1966,0.2013,0.1991,0.2059,0.2066,0.2041,0.2026,0.196,0.1907,0.1888,0.1883,0.1877,0.193,0.1929,0.1928,0.1927,0,0.1116,0.1175,0.1219,0.1287,0.1349,0.14,0.1483,0.1507,0.1633,0.1754,0.1781,0.1811,0.1876,0.1902,0.193,0.1929,0.2023,0.199,0.1996,0.1934,0.1885,0.1869,0.1867,0.1916,0.1917,0.1918,0.1919,0,0.1081,0.1098,0.1162,0.121,0.1271,0.1285,0.1352,0.1394,0.1453,0.1618,0.1624,0.1739,0.1848,0.1833,0.1855,0.1848,0.1814,0.174,0.1759,0.1773,0.1686,0.1597,0.1537,0,0,0,0,0,0.1029,0.103,0.1069,0.1102,0.1154,0.1186,0.1289,0.1357,0.1492,0.1462,0.1537,0.1582,0.1617,0.1676,0.1633,0.1789,0.1828,0.1731,0.1754,0.185,0.1864,0.1777,0,0,0,0,0,0,0.099,0.1022,0.1032,0.0993,0.0988,0.1027,0.1086,0.1186,0.1179,0.1327,0.1351,0.1467,0.1524,0.161,0.1591,0.1612,0.159,0.181,0.1806,0.1842,0.1855,0.1866,0.1781,0,0,0,0,0]},{"header":{"parameterUnit":"m.s-1","parameterCategory":2,"la1":30.2991,"la2":30.254,"lo1":-89.0895,"lo2":-89.0444,"dy":0.0017,"dx":0.0017,"nx":28,"ny":28,"refTime":"2023-11-01T21:00:00:Z","depth":"4","parameterNumber":3,"parameterNumberName":"V-component_of_CURRENTS"},"data":[0,0,0,0,0,0,0,0,0,0,0,0,0,0,0,0,0,0,0,0,0,0,0,0,0,0,0,0,0,0,0,0,0,0,0,0,0,0,0,0,0,0,0,0,0,0,0,0,0,0,0,0,0,0,0,0,0,0,0.0367,0.0365,0,0.0303,0.0304,0.0304,0.0315,0.0314,0.0314,0.0314,0.0333,0.0334,0.0335,0,0,0,0,0,0,0,0,0,0,0,0,0,0.0383,0.0384,0.0367,0.0365,0.0363,0.0303,0.0304,0.0304,0.0315,0.0314,0.0314,0.0313,0.0333,0.0334,0.0335,0,0,0,0,0,0,0,0,0,0,0,0,0,0.0369,0.0385,0.0368,0.0348,0.0344,0.0303,0.0304,0.0305,0.0315,0.0314,0.0314,0.0313,0.0333,0.0334,0.0336,0.0358,0,0,0.034,0.034,0,0,0,0,0,0,0,0,0.037,0.0371,0.0353,0.0349,0.0345,0.0301,0.0315,0.0321,0.0315,0.0344,0.0314,0.0313,0.032,0.0322,0.0335,0.0359,0.036,0.034,0.0341,0.0341,0.0342,0,0,0,0,0,0,0,0.0372,0.0373,0.0359,0.035,0.0345,0.0301,0.0302,0.0317,0.0352,0.0342,0.0338,0.0304,0.032,0.0333,0.0335,0.036,0.034,0.0341,0.0342,0.0343,0.0364,0.0364,0,0,0,0,0,0,0.0352,0.0375,0.0361,0.0355,0.0337,0.03,0.0302,0.033,0.0349,0.0346,0.0304,0.0304,0.0331,0.0334,0.0336,0.0359,0.0341,0.0343,0.0344,0.0364,0.0364,0.0364,0,0,0,0,0,0,0.0354,0.0355,0.0363,0.0346,0.0342,0.03,0.0332,0.0329,0.0326,0.0317,0.0319,0.0301,0.0331,0.0334,0.0359,0.036,0.0343,0.0345,0.0365,0.0364,0.0364,0.0408,0,0,0,0,0,0,0.0357,0.0358,0.0385,0.0347,0.0341,0.0332,0.033,0.0327,0.0298,0.0298,0.0315,0.0317,0.0331,0.0357,0.0361,0.0362,0.0346,0.0365,0.0365,0.0364,0.0407,0.0409,0.0411,0,0,0,0,0,0.0358,0.0393,0.0389,0.0385,0.0379,0.0329,0.0326,0.0302,0.0298,0.0301,0.0324,0.0316,0.0355,0.036,0.0363,0.0364,0.0365,0.0365,0.0364,0.0406,0.0409,0.0411,0,0,0,0,0,0,0.0419,0.0394,0.039,0.0419,0.0369,0.0325,0.0326,0.0296,0.0316,0.0326,0.0332,0.0337,0.0354,0.035,0.0354,0.0364,0.035,0.035,0.0381,0.0383,0.0385,0.038,0.0347,0,0,0,0,0,0.0441,0.0463,0.0411,0.0429,0.0416,0.0371,0.0351,0.0323,0.0314,0.0322,0.0336,0.0347,0.0356,0.0363,0.0375,0.0392,0.0357,0.0386,0.0388,0.039,0.0385,0.0328,0.0325,0.0362,0.0362,0.0362,0,0,0.044,0.045,0.0444,0.044,0.042,0.041,0.0364,0.0329,0.033,0.0322,0.0369,0.0361,0.0362,0.0386,0.0389,0.0382,0.0363,0.0389,0.0391,0.0385,0.0327,0.0323,0.032,0.0361,0.0361,0.0361,0,0,0.0457,0.0492,0.0505,0.0485,0.0443,0.0429,0.0411,0.0372,0.0375,0.0393,0.0384,0.0374,0.0411,0.0399,0.0399,0.0413,0.0377,0.0409,0.042,0.0366,0.0362,0.0358,0.0321,0.0313,0.0409,0.0409,0.0409,0,0.0466,0.0503,0.049,0.0506,0.0491,0.044,0.0436,0.0437,0.0409,0.0408,0.0416,0.0418,0.0417,0.0409,0.0418,0.0418,0.0386,0.0418,0.0369,0.0364,0.036,0.0322,0.0313,0.0411,0.0411,0.0411,0.041,0,0.0482,0.0515,0.0525,0.0552,0.0535,0.0523,0.0499,0.0502,0.0503,0.0483,0.0477,0.047,0.0456,0.0449,0.045,0.0408,0.0396,0.038,0.0365,0.0359,0.0319,0.0309,0.0414,0.0413,0.0413,0.0412,0,0,0.0512,0.0531,0.0541,0.0557,0.0561,0.0545,0.0569,0.0555,0.0558,0.0545,0.0537,0.0535,0.0494,0.0487,0.0455,0.041,0.036,0.0387,0.0384,0.0356,0.0247,0.0247,0.0236,0.0335,0.0333,0.0332,0.0236,0,0.0536,0.0576,0.058,0.0609,0.0624,0.0606,0.0632,0.0611,0.0607,0.0598,0.055,0.0541,0.0519,0.05,0.0451,0.0382,0.0334,0.0387,0.0252,0.0248,0.0253,0.0224,0.0326,0.0229,0.0226,0.0225,0.0223,0,0.057,0.0598,0.0627,0.0651,0.0657,0.067,0.0688,0.0693,0.0665,0.0654,0.0609,0.0569,0.0504,0.0483,0.0357,0.0392,0.0322,0.0267,0.0262,0.0237,0.0229,0.0231,0.0205,0.0206,0.0208,0.0209,0.021,0,0.0609,0.0641,0.0674,0.068,0.0695,0.071,0.0722,0.071,0.0716,0.0673,0.0657,0.0575,0.0532,0.043,0.0327,0.0334,0.0184,0.0177,0.0109,0.0108,0.012,0.0124,0.0075,0.0075,0.0075,0.0075,0.0075,0,0.0653,0.0682,0.0696,0.0715,0.0754,0.0747,0.0778,0.0771,0.0752,0.0751,0.068,0.0647,0.0514,0.0418,0.0321,0.0188,0.0175,0.01,0.0076,0.0142,0.015,0.0113,0.0119,0.0072,0.0072,0.0073,0.0074,0,0.0685,0.0696,0.0738,0.0763,0.0775,0.0802,0.0823,0.0839,0.0813,0.0801,0.0786,0.0688,0.0564,0.0432,0.0263,0.0186,0.0058,0.0012,0.0102,0.0086,0.002,0.003,-0.008,-0.0081,-0.0082,-0.0082,-0.0083,0,0.0701,0.0728,0.0776,0.0802,0.0818,0.0853,0.0882,0.0876,0.0881,0.0829,0.0819,0.07,0.0622,0.0387,0.0247,0.005,0.0025,-0.0041,-0.0022,0.0013,0.0,0.0011,0.0021,-0.0084,-0.0085,-0.0085,-0.0085,0,0.0734,0.0759,0.0789,0.0847,0.0887,0.0926,0.0955,0.0958,0.0943,0.0916,0.0835,0.0708,0.0563,0.0387,0.0231,0.0093,0.0002,-0.005,-0.0049,-0.0032,0.0006,-0.0003,0.0008,-0.0088,-0.0087,-0.0087,-0.0087,0,0.0767,0.0794,0.0844,0.0887,0.0943,0.0985,0.0991,0.0985,0.0981,0.0909,0.0882,0.0724,0.0626,0.0408,0.0268,0.0128,0.0092,0.0051,0.0046,0.0047,0.0115,0.0184,0.0113,0,0,0,0,0,0.0793,0.0827,0.0876,0.0934,0.0989,0.1024,0.1039,0.1033,0.1006,0.0957,0.0917,0.0783,0.0554,0.045,0.031,0.0256,0.0074,0.0086,0.0027,-0.0104,-0.01,-0.0043,0,0,0,0,0,0,0.0815,0.0868,0.0884,0.0965,0.1013,0.108,0.1095,0.1073,0.1029,0.0974,0.0851,0.0766,0.0544,0.0652,0.032,0.0274,0.0218,-0.0027,-0.003,-0.0106,-0.0103,-0.01,-0.004,0,0,0,0,0]}]]